Change the Weather History Date:

Wednesday, December 14, 2011

  Actual Average Record
Temperature  
Mean Temperature 40 °F -  
Max Temperature 50 °F 31 °F 58 °F (1975)
Min Temperature 33 °F 19 °F -18 °F (1985)
Degree Days  
Heating Degree Days 24    
Moisture  
Dew Point 40 °F    
Average Humidity 99    
Maximum Humidity 100    
Minimum Humidity 81    
Precipitation  
Precipitation 0.39 in - - ()
Sea Level Pressure  
Sea Level Pressure 29.88 in    
Wind  
Wind Speed 8 mph (SSE)    
Max Wind Speed 16 mph    
Max Gust Speed 20 mph    
Visibility 2 miles    
Events Fog , Rain    
Averages and records for this station are not official NWS values.
T = Trace of Precipitation, MM = Missing Value Source: NWS Daily Summary

Daily Weather History Graph

Daily Weather History Graph

Search for Another Location

Airport or City:

Trip Planner

Search our weather history database for the weather conditions in past years. The results will help you decide how hot, cold, wet, or windy it might be!

Date:

Astronomy

Dec. 14, 2011 Rise Set
Actual Time 7:19 AM CST 4:19 PM CST
Civil Twilight 6:47 AM CST 4:51 PM CST
Nautical Twilight 6:10 AM CST 5:27 PM CST
Astronomical Twilight 5:36 AM CST 6:02 PM CST
Moon 8:44 PM CST (12/14) 9:59 AM CST (12/14)
Length of Visible Light 10h 04m
Length of Day
8h 59m
Waning Gibbous, 83% of the Moon is Illuminated
Dec 14
Waning Gibbous
Dec 17
Last Quarter
Dec 24
New
Jan 1
First Quarter
Jan 9
Full

Hourly Weather History & Observations

Time (CST) Temp. Windchill Dew Point Humidity Pressure Visibility Wind Dir Wind Speed Gust Speed Precip Events Conditions
12:15 AM 35.6 °F 30.7 °F 30.2 °F 81% 30.19 in 10.0 mi ESE 5.8 mph - N/A   Overcast
1:15 AM 35.6 °F 31.7 °F 32.0 °F 87% 30.20 in 4.0 mi South 4.6 mph - N/A Rain Light Rain
1:35 AM 35.6 °F 31.7 °F 33.8 °F 93% 30.19 in 1.8 mi SE 4.6 mph - 0.04 in Rain Rain
1:55 AM 33.8 °F 29.6 °F 33.8 °F 100% 30.18 in 1.5 mi ESE 4.6 mph - 0.10 in Rain Rain
2:15 AM 33.8 °F 27.7 °F 33.8 °F 100% 30.15 in 1.5 mi ESE 6.9 mph - 0.02 in Rain Light Rain
2:35 AM 33.8 °F 28.6 °F 33.8 °F 100% 30.15 in 1.8 mi ESE 5.8 mph - 0.02 in Rain Rain
3:15 AM 35.6 °F 28.6 °F 35.6 °F 100% 30.12 in 1.0 mi ESE 9.2 mph - 0.03 in Rain Rain
3:35 AM 35.6 °F 29.2 °F 35.6 °F 100% 30.09 in 0.8 mi ESE 8.1 mph - 0.07 in Rain Light Rain
3:55 AM 35.6 °F 29.9 °F 35.6 °F 100% 30.09 in 1.2 mi SE 6.9 mph - 0.07 in   Light Drizzle
4:15 AM 35.6 °F 29.9 °F 35.6 °F 100% 30.08 in 1.0 mi ESE 6.9 mph - 0.01 in Rain Rain
4:35 AM 35.6 °F 31.7 °F 35.6 °F 100% 30.07 in 0.8 mi ESE 4.6 mph - 0.03 in Rain Rain
4:55 AM 35.6 °F 29.9 °F 35.6 °F 100% 30.09 in 1.0 mi SE 6.9 mph - 0.06 in Rain Light Rain
5:15 AM 35.6 °F 29.2 °F 35.6 °F 100% 30.06 in 1.0 mi ESE 8.1 mph - 0.03 in Rain Rain
5:55 AM 35.6 °F 28.6 °F 35.6 °F 100% 30.04 in 4.0 mi SE 9.2 mph - 0.04 in   Overcast
6:15 AM 35.6 °F 29.2 °F 35.6 °F 100% 30.02 in 4.0 mi ESE 8.1 mph - N/A   Overcast
6:55 AM 35.6 °F 27.5 °F 35.6 °F 100% 30.01 in 4.0 mi SE 11.5 mph - N/A Rain Rain
7:15 AM 35.6 °F 28.0 °F 35.6 °F 100% 29.99 in 3.0 mi ESE 10.4 mph - N/A   Light Drizzle
7:35 AM 37.4 °F 31.4 °F 37.4 °F 100% 29.96 in 4.0 mi ESE 8.1 mph - N/A Rain Light Rain
7:55 AM 37.4 °F 32.8 °F 37.4 °F 100% 29.98 in 5.0 mi SE 5.8 mph - N/A   Light Drizzle
8:15 AM 37.4 °F 29.3 °F 37.4 °F 100% 30.08 in 7.0 mi SW 12.7 mph - N/A   Drizzle
8:35 AM 37.4 °F 33.8 °F 37.4 °F 100% 30.01 in 2.5 mi ESE 4.6 mph - 0.09 in Rain Rain
8:55 AM 37.4 °F 32.1 °F 37.4 °F 100% 29.97 in 3.0 mi ESE 6.9 mph - 0.10 in Rain Rain
9:15 AM 37.4 °F 30.3 °F 37.4 °F 100% 29.96 in 2.5 mi ESE 10.4 mph - N/A   Light Drizzle
9:35 AM 37.4 °F 30.8 °F 37.4 °F 100% 29.94 in 4.0 mi ESE 9.2 mph - N/A   Overcast
9:55 AM 39.2 °F 33.0 °F 39.2 °F 100% 29.98 in 7.0 mi SSE 9.2 mph - N/A   Overcast
10:15 AM 39.2 °F 33.6 °F 39.2 °F 100% 29.97 in 7.0 mi SSE 8.1 mph - N/A   Drizzle
10:35 AM 39.2 °F 35.9 °F 39.2 °F 100% 29.95 in 7.0 mi SSE 4.6 mph - N/A   Light Drizzle
10:55 AM 41.0 °F 37.1 °F 41.0 °F 100% 29.92 in 7.0 mi SSE 5.8 mph - N/A   Drizzle
11:15 AM 41.0 °F 36.4 °F 41.0 °F 100% 29.92 in 7.0 mi South 6.9 mph - N/A   Overcast
11:35 AM 41.0 °F 37.1 °F 41.0 °F 100% 29.91 in 10.0 mi South 5.8 mph - N/A   Overcast
11:55 AM 41.0 °F 38.0 °F 41.0 °F 100% 29.88 in 4.0 mi SSE 4.6 mph - N/A   Overcast
12:15 PM 41.0 °F 35.8 °F 41.0 °F 100% 29.85 in 0.8 mi SE 8.1 mph - N/A   Overcast
12:35 PM 41.0 °F 34.3 °F 41.0 °F 100% 29.84 in 0.2 mi SE 11.5 mph - N/A Fog Fog
12:55 PM 41.0 °F 34.3 °F 41.0 °F 100% 29.83 in 0.2 mi SSE 11.5 mph - N/A Fog Fog
1:15 PM 41.0 °F 34.7 °F 41.0 °F 100% 29.80 in 0.2 mi SSE 10.4 mph - N/A Fog Fog
1:35 PM 41.0 °F 34.3 °F 41.0 °F 100% 29.79 in 0.5 mi SSE 11.5 mph - N/A Fog Fog
1:55 PM 42.8 °F 37.5 °F 42.8 °F 100% 29.80 in 0.5 mi South 9.2 mph - N/A Fog Fog
2:15 PM 42.8 °F 36.6 °F 42.8 °F 100% 29.82 in 0.2 mi South 11.5 mph - N/A Fog Fog
2:35 PM 42.8 °F 39.3 °F 42.8 °F 100% 29.81 in 0.2 mi SSW 5.8 mph - N/A   Light Drizzle
2:55 PM 42.8 °F 39.3 °F 42.8 °F 100% 29.77 in 0.2 mi SSE 5.8 mph - N/A Fog Fog
3:15 PM 42.8 °F 37.0 °F 42.8 °F 100% 29.77 in 0.2 mi SSE 10.4 mph - N/A Fog Fog
3:35 PM 42.8 °F 39.3 °F 42.8 °F 100% 29.76 in 0.2 mi SSE 5.8 mph - N/A Fog Fog
4:15 PM 41.0 °F 37.1 °F 41.0 °F 100% 29.79 in 0.2 mi South 5.8 mph - N/A Fog Fog
4:35 PM 42.8 °F 38.6 °F 42.8 °F 100% 29.77 in 0.2 mi SSE 6.9 mph - N/A   Drizzle
4:55 PM 42.8 °F 38.6 °F 42.8 °F 100% 29.77 in 0.2 mi SSE 6.9 mph - N/A Rain Light Rain
5:15 PM 41.0 °F 35.8 °F 41.0 °F 100% 29.75 in 0.2 mi SE 8.1 mph - N/A   Unknown
5:35 PM 41.0 °F 34.3 °F 41.0 °F 100% 29.73 in 0.2 mi SE 11.5 mph - N/A Rain Light Rain
5:55 PM 42.8 °F 36.2 °F 42.8 °F 100% 29.71 in 0.2 mi SE 12.7 mph - N/A   Drizzle
6:15 PM 42.8 °F 37.0 °F 42.8 °F 100% 29.70 in 0.5 mi SSE 10.4 mph - N/A Fog Fog
6:35 PM 44.6 °F 39.7 °F 44.6 °F 100% 29.70 in 1.5 mi SSE 9.2 mph - N/A   Overcast
6:55 PM 44.6 °F 38.1 °F 44.6 °F 100% 29.68 in 3.0 mi SSE 13.8 mph - N/A   Overcast
7:15 PM 44.6 °F 37.4 °F 44.6 °F 100% 29.68 in 4.0 mi South 16.1 mph - N/A   Overcast
7:35 PM 44.6 °F 37.8 °F 44.6 °F 100% 29.67 in 3.0 mi South 15.0 mph - N/A   Overcast
7:55 PM 44.6 °F 37.4 °F 44.6 °F 100% 29.66 in 1.5 mi South 16.1 mph 19.6 mph N/A   Overcast
8:15 PM 44.6 °F 38.1 °F 44.6 °F 100% 29.65 in 1.5 mi South 13.8 mph 19.6 mph N/A   Overcast
8:35 PM 46.4 °F 41.1 °F 46.4 °F 100% 29.63 in 1.8 mi South 11.5 mph - N/A   Overcast
9:35 PM 46.4 °F 40.7 °F 46.4 °F 100% 29.61 in 1.2 mi South 12.7 mph - N/A   Light Drizzle
9:55 PM 46.4 °F 41.1 °F 46.4 °F 100% 29.60 in 1.2 mi South 11.5 mph - N/A Rain Heavy Rain
10:15 PM 46.4 °F 40.7 °F 46.4 °F 100% 29.60 in 0.5 mi South 12.7 mph - N/A   Light Drizzle
10:55 PM 48.2 °F - 48.2 °F 100% 29.59 in 0.8 mi SSW 13.8 mph - N/A Rain Light Rain
11:15 PM 48.2 °F - 48.2 °F 100% 29.58 in 3.0 mi SSW 13.8 mph - N/A   Overcast
11:35 PM 50.0 °F - 50.0 °F 100% 29.58 in 4.0 mi SW 15.0 mph 18.4 mph N/A   Overcast
11:55 PM 50.0 °F - 50.0 °F 100% 29.57 in 5.0 mi SSW 11.5 mph - N/A   Overcast